Location: Ethel Rock
(53.4667°N, 4.5667°W)
Time: 05:10:16
(UTC+00:00)

H-2A R/B - Pass Details

Date: 24 October 2020
Orbit: 528 x 653 km, 98.3° (Epoch: 25 November)

Event Time Altitude Azimuth Distance (km) Brightness Sun altitude
Rises 06:22:00 0° 15° (NNE) 2,981 6.1 -6.7°
Reaches altitude 10° 06:24:15 10° 17° (NNE) 2,056 5.3 -6.4°
Maximum altitude 06:28:46 82° 105° (ESE) 647 2.8 -5.7°
Drops below altitude 10° 06:33:06 10° 194° (SSW) 1,983 5.2 -5.1°
Sets 06:35:14 0° 195° (SSW) 2,865 6.0 -4.8°
